DAL596Z PANC-UUEE

Flight info

Callsign DAL596Z
Flight time N/A
Altitude 35000
Route BGQ Q43 CAWIN Q41 SCC DCT 72N148W 78N146W 82N143W DCT PEASY/N0445F310 DCT 84N139W 85N136W 86N130W 87N124W 88N115W 9000N08831E/K0824F320 87N031E/K0826F330 DCT MAGUN/K0822F320 DCT RITAK/K0832F330 DCT PIREL/K0845F340 DCT 74N033E DCT EVMUV DCT AKATI P190 PELOR/K0845F350 P65 UREPI/K0824F360 P65 ROMTA ROMTA3E
Aircraft A21N/M-SDE3FGHIRWY/LB1

Departure

Time 2026-05-04 05:39
Airport Ted Stevens Anchorage International Airport (PANC)

Arrival

Time N/A
Airport Sheremetyevo International Airport (UUEE)
Time Latitude Longitude Altitude Speed Heading
2026-05-04 05:19 61.17228 -149.98541 159 ft 0 kts 65°
2026-05-04 05:28 61.17200 -149.98663 159 ft 2 kts 65°
2026-05-04 05:29 61.17197 -149.98695 159 ft 2 kts 98°
2026-05-04 05:29 61.17202 -149.98726 159 ft 2 kts 124°
2026-05-04 05:29 61.17213 -149.98747 159 ft 2 kts 148°
2026-05-04 05:29 61.17221 -149.98755 159 ft 1 kts 163°
2026-05-04 05:31 61.17220 -149.98755 159 ft 1 kts 162°
2026-05-04 05:31 61.17207 -149.98746 159 ft 2 kts 162°
2026-05-04 05:32 61.17182 -149.98729 159 ft 4 kts 160°
2026-05-04 05:32 61.17149 -149.98703 159 ft 5 kts 163°
2026-05-04 05:32 61.17124 -149.98755 159 ft 7 kts 262°
2026-05-04 05:33 61.17125 -149.99037 159 ft 10 kts 275°
2026-05-04 05:33 61.17126 -149.99184 159 ft 10 kts 266°
2026-05-04 05:33 61.17125 -149.99335 159 ft 11 kts 272°
2026-05-04 05:33 61.17128 -149.99518 159 ft 14 kts 272°
2026-05-04 05:34 61.17126 -149.99739 159 ft 16 kts 266°
2026-05-04 05:34 61.17118 -149.99970 159 ft 15 kts 268°
2026-05-04 05:34 61.17122 -150.00191 159 ft 14 kts 274°
2026-05-04 05:34 61.17130 -150.00400 159 ft 14 kts 274°
2026-05-04 05:35 61.17123 -150.00600 159 ft 13 kts 265°
2026-05-04 05:35 61.17112 -150.00786 159 ft 9 kts 236°
2026-05-04 05:35 61.17076 -150.00822 159 ft 2 kts 198°
2026-05-04 05:35 61.17073 -150.00822 159 ft 0 kts 179°
2026-05-04 05:36 61.17062 -150.00822 159 ft 2 kts 179°
2026-05-04 05:36 61.17029 -150.00821 159 ft 7 kts 178°
2026-05-04 05:37 61.16978 -150.00781 159 ft 8 kts 121°
2026-05-04 05:37 61.16974 -150.00661 159 ft 8 kts 84°
2026-05-04 05:37 61.16975 -150.00633 159 ft 0 kts 87°
2026-05-04 05:38 61.16975 -150.00630 159 ft 1 kts 87°
2026-05-04 05:38 61.16978 -150.00468 159 ft 35 kts 87°
2026-05-04 05:38 61.16980 -149.99472 160 ft 101 kts 90°
2026-05-04 05:38 61.16980 -149.97638 160 ft 155 kts 89°
2026-05-04 05:39 61.16985 -149.95505 160 ft 160 kts 90°
2026-05-04 05:39 61.16995 -149.90588 1064 ft 173 kts 89°
2026-05-04 05:39 61.17009 -149.88106 1618 ft 171 kts 89°
2026-05-04 05:40 61.17129 -149.83052 2057 ft 184 kts 85°
2026-05-04 05:40 61.17308 -149.80370 2204 ft 194 kts 72°
2026-05-04 05:40 61.17847 -149.77597 2302 ft 221 kts 57°
2026-05-04 05:41 61.18986 -149.75288 2661 ft 237 kts 26°
2026-05-04 05:41 61.20547 -149.74434 3355 ft 240 kts 356°
2026-05-04 05:41 61.22132 -149.75525 3638 ft 250 kts 320°
2026-05-04 05:41 61.23286 -149.78320 3895 ft 262 kts 303°
2026-05-04 05:42 61.24280 -149.81511 4083 ft 269 kts 303°
2026-05-04 05:42 61.25363 -149.84746 4243 ft 278 kts 306°
2026-05-04 05:42 61.26548 -149.88008 4516 ft 282 kts 309°
2026-05-04 05:42 61.28022 -149.90613 4800 ft 283 kts 337°
2026-05-04 05:43 61.29906 -149.91548 5145 ft 283 kts 355°
2026-05-04 05:43 61.31871 -149.91782 5478 ft 284 kts 358°
2026-05-04 05:43 61.33838 -149.91965 5759 ft 276 kts 357°
2026-05-04 05:45 61.47413 -149.94588 7284 ft 292 kts 354°
2026-05-04 05:45 61.49414 -149.95029 7761 ft 294 kts 354°
2026-05-04 05:47 61.63855 -149.93019 10517 ft 321 kts 15°
2026-05-04 05:47 61.66049 -149.91797 10706 ft 331 kts 15°
2026-05-04 05:47 61.68306 -149.90549 10889 ft 341 kts 14°
2026-05-04 05:48 61.70620 -149.89276 11069 ft 350 kts 14°
2026-05-04 05:48 61.73027 -149.87955 11244 ft 360 kts 14°
2026-05-04 05:48 61.75442 -149.86630 11416 ft 369 kts 14°
2026-05-04 05:48 61.77972 -149.85242 11705 ft 374 kts 14°
2026-05-04 05:49 61.80476 -149.83868 12106 ft 375 kts 14°
2026-05-04 05:49 61.82994 -149.82486 12497 ft 377 kts 14°
2026-05-04 05:49 61.85536 -149.81088 12868 ft 379 kts 14°
2026-05-04 05:49 61.88098 -149.79678 13233 ft 381 kts 14°
2026-05-04 05:51 62.06304 -149.69589 15601 ft 394 kts 14°
2026-05-04 05:51 62.08973 -149.68100 15913 ft 396 kts 14°
2026-05-04 05:52 62.11635 -149.66612 16219 ft 398 kts 14°
2026-05-04 05:52 62.14299 -149.65122 16518 ft 400 kts 14°
2026-05-04 05:52 62.16967 -149.63625 16810 ft 401 kts 14°
2026-05-04 05:52 62.19665 -149.62108 17098 ft 403 kts 14°
2026-05-04 05:53 62.22410 -149.60562 17385 ft 405 kts 14°
2026-05-04 05:54 62.41641 -149.49651 19200 ft 416 kts 14°
2026-05-04 05:55 62.44439 -149.48051 19439 ft 417 kts 14°
2026-05-04 05:55 62.47253 -149.46439 19674 ft 419 kts 14°
2026-05-04 05:55 62.50052 -149.44833 19902 ft 420 kts 14°
2026-05-04 05:55 62.52890 -149.43201 20129 ft 422 kts 14°
2026-05-04 05:56 62.55713 -149.41574 20349 ft 423 kts 14°
2026-05-04 05:56 62.58533 -149.39946 20565 ft 424 kts 14°
2026-05-04 05:56 62.61380 -149.38300 20777 ft 426 kts 14°
2026-05-04 05:56 62.64254 -149.36633 20986 ft 427 kts 14°
2026-05-04 05:57 62.67119 -149.34970 21191 ft 428 kts 15°
2026-05-04 05:57 62.69986 -149.33302 21390 ft 430 kts 15°
2026-05-04 05:57 62.72861 -149.31627 21586 ft 431 kts 15°
2026-05-04 05:57 62.75769 -149.29927 21783 ft 432 kts 15°
2026-05-04 05:58 62.78646 -149.28244 21969 ft 433 kts 15°
2026-05-04 05:58 62.81578 -149.26524 22153 ft 434 kts 15°
2026-05-04 05:58 62.84471 -149.24823 22333 ft 436 kts 15°
2026-05-04 05:58 62.87385 -149.23108 22510 ft 437 kts 15°
2026-05-04 05:59 62.90332 -149.21368 22685 ft 438 kts 15°
2026-05-04 05:59 62.93267 -149.19634 22855 ft 439 kts 15°
2026-05-04 05:59 62.96215 -149.17886 23022 ft 440 kts 15°
2026-05-04 05:59 62.99137 -149.16151 23184 ft 441 kts 15°
2026-05-04 06:00 63.02094 -149.14394 23344 ft 442 kts 15°
2026-05-04 06:00 63.05043 -149.12637 23500 ft 443 kts 15°
2026-05-04 06:00 63.08019 -149.10860 23655 ft 444 kts 15°
2026-05-04 06:00 63.11042 -149.09052 23810 ft 445 kts 15°
2026-05-04 06:01 63.14012 -149.07274 23958 ft 446 kts 15°
2026-05-04 06:01 63.16988 -149.05487 24103 ft 447 kts 15°
2026-05-04 06:03 63.38480 -148.98045 25048 ft 454 kts
2026-05-04 06:03 63.41654 -148.97878 25171 ft 454 kts
2026-05-04 06:05 63.63826 -148.96536 25977 ft 460 kts
2026-05-04 06:05 63.70213 -148.96127 26187 ft 461 kts
2026-05-04 06:05 63.73413 -148.95921 26288 ft 462 kts
2026-05-04 06:06 63.76589 -148.95717 26387 ft 463 kts
2026-05-04 06:06 63.79805 -148.95508 26484 ft 464 kts
2026-05-04 06:06 63.82998 -148.95302 26579 ft 464 kts
2026-05-04 06:06 63.86237 -148.95091 26673 ft 465 kts
2026-05-04 06:07 63.89439 -148.94882 26763 ft 466 kts
2026-05-04 06:07 63.92695 -148.94670 26853 ft 466 kts
2026-05-04 06:07 63.95926 -148.94458 26941 ft 467 kts
2026-05-04 06:07 63.99133 -148.94247 27025 ft 467 kts
2026-05-04 06:08 64.02408 -148.94032 27106 ft 468 kts
2026-05-04 06:08 64.05651 -148.93819 27184 ft 468 kts
2026-05-04 06:08 64.08862 -148.93607 27258 ft 469 kts
2026-05-04 06:08 64.12137 -148.93390 27333 ft 469 kts
2026-05-04 06:09 64.15412 -148.93173 27406 ft 470 kts
2026-05-04 06:09 64.18633 -148.92958 27471 ft 470 kts
2026-05-04 06:11 64.41556 -148.91420 27885 ft 473 kts
2026-05-04 06:11 64.44837 -148.91197 27936 ft 474 kts
2026-05-04 06:13 64.67870 -148.89621 28252 ft 476 kts
2026-05-04 06:14 64.87683 -148.88243 28468 ft 478 kts
2026-05-04 06:14 64.90963 -148.88013 28500 ft 478 kts
2026-05-04 06:15 64.97606 -148.87544 28561 ft 478 kts
2026-05-04 06:15 65.04243 -148.87076 28618 ft 479 kts
2026-05-04 06:16 65.10883 -148.86603 28672 ft 479 kts
2026-05-04 06:16 65.17532 -148.86128 28722 ft 480 kts
2026-05-04 06:17 65.24191 -148.85651 28770 ft 480 kts
2026-05-04 06:17 65.30833 -148.85170 28814 ft 480 kts
2026-05-04 06:18 65.37458 -148.84689 28856 ft 480 kts
2026-05-04 06:20 65.64136 -148.82729 29000 ft 482 kts
2026-05-04 06:21 65.80821 -148.81482 29073 ft 482 kts
2026-05-04 06:22 65.87516 -148.80977 29100 ft 482 kts
2026-05-04 06:25 66.34302 -148.77376 29250 ft 483 kts
2026-05-04 06:26 66.40999 -148.76849 29267 ft 483 kts
2026-05-04 06:26 66.47697 -148.76318 29282 ft 484 kts
2026-05-04 06:27 66.64449 -148.74982 29319 ft 484 kts
2026-05-04 06:28 66.71182 -148.74440 29333 ft 484 kts
2026-05-04 06:28 66.77893 -148.73895 29347 ft 484 kts
2026-05-04 06:29 66.84584 -148.73351 29359 ft 484 kts
2026-05-04 06:29 66.91306 -148.72800 29371 ft 484 kts
2026-05-04 06:30 66.97977 -148.72250 29383 ft 484 kts
2026-05-04 06:30 67.04709 -148.71693 29396 ft 484 kts
2026-05-04 06:31 67.11440 -148.71133 29411 ft 484 kts
2026-05-04 06:31 67.18148 -148.70572 29427 ft 484 kts
2026-05-04 06:33 67.44971 -148.68294 29493 ft 484 kts
2026-05-04 06:34 67.51640 -148.67720 29509 ft 484 kts
2026-05-04 06:34 67.58378 -148.67136 29526 ft 484 kts
2026-05-04 06:36 67.85203 -148.64780 29595 ft 484 kts
2026-05-04 06:37 67.91876 -148.64185 29612 ft 484 kts
2026-05-04 06:37 67.98594 -148.63582 29629 ft 484 kts
2026-05-04 06:38 68.05318 -148.62976 29647 ft 484 kts
2026-05-04 06:40 68.32100 -148.60527 29718 ft 484 kts
2026-05-04 06:40 68.38830 -148.59903 29737 ft 484 kts
2026-05-04 06:41 68.45528 -148.59277 29755 ft 484 kts
2026-05-04 06:41 68.52191 -148.58652 29775 ft 484 kts
2026-05-04 06:42 68.58896 -148.58019 29794 ft 484 kts
2026-05-04 06:44 68.85679 -148.55449 29869 ft 483 kts
2026-05-04 06:44 68.92381 -148.54796 29888 ft 483 kts
2026-05-04 06:45 68.99075 -148.54141 29907 ft 483 kts
2026-05-04 06:45 69.05799 -148.53477 29926 ft 483 kts
2026-05-04 06:46 69.12483 -148.52815 29945 ft 483 kts
2026-05-04 06:46 69.19157 -148.52150 29965 ft 483 kts
2026-05-04 06:48 69.45944 -148.49437 30043 ft 483 kts
2026-05-04 06:50 69.72694 -148.46660 30123 ft 483 kts
2026-05-04 06:51 69.79368 -148.45956 30142 ft 483 kts
2026-05-04 06:51 69.86084 -148.45244 30162 ft 483 kts
2026-05-04 06:52 69.92756 -148.44531 30182 ft 483 kts
2026-05-04 06:52 69.99456 -148.43813 30202 ft 483 kts
2026-05-04 06:53 70.06149 -148.43091 30222 ft 483 kts
2026-05-04 06:53 70.12830 -148.42369 30242 ft 483 kts
2026-05-04 06:54 70.19476 -148.41643 30262 ft 483 kts
2026-05-04 06:54 70.26150 -148.40420 30282 ft 483 kts
2026-05-04 06:55 70.32843 -148.38911 30302 ft 483 kts
2026-05-04 06:55 70.39490 -148.37440 30322 ft 482 kts
2026-05-04 06:57 70.66164 -148.31609 30402 ft 482 kts
2026-05-04 06:58 70.72847 -148.30130 30421 ft 482 kts
2026-05-04 06:58 70.79535 -148.28639 30441 ft 482 kts
2026-05-04 06:59 70.86199 -148.27144 30461 ft 482 kts
2026-05-04 06:59 70.92856 -148.25641 30481 ft 482 kts
2026-05-04 07:01 71.19490 -148.19522 30560 ft 482 kts
2026-05-04 07:02 71.26136 -148.17969 30580 ft 482 kts
2026-05-04 07:02 71.32825 -148.16394 30600 ft 482 kts
2026-05-04 07:03 71.39467 -148.14822 30619 ft 482 kts
2026-05-04 07:03 71.46132 -148.13232 30643 ft 482 kts
2026-05-04 07:04 71.52774 -148.11636 30665 ft 482 kts
2026-05-04 07:04 71.59422 -148.10030 30687 ft 482 kts
2026-05-04 07:05 71.66092 -148.08406 30708 ft 482 kts
2026-05-04 07:05 71.72739 -148.06776 30728 ft 482 kts
2026-05-04 07:06 71.82718 -148.04309 30759 ft 482 kts
2026-05-04 07:07 71.89371 -148.02652 30779 ft 481 kts
2026-05-04 07:09 72.15990 -147.96327 30862 ft 481 kts
2026-05-04 07:09 72.22636 -147.94810 30882 ft 481 kts
2026-05-04 07:10 72.29295 -147.93275 30902 ft 481 kts
2026-05-04 07:12 72.55920 -147.87016 30982 ft 481 kts
2026-05-04 07:12 72.62554 -147.85428 31002 ft 481 kts
2026-05-04 07:13 72.69227 -147.83817 31005 ft 481 kts
2026-05-04 07:13 72.75848 -147.82207 31005 ft 481 kts
2026-05-04 07:14 72.92506 -147.78104 31005 ft 481 kts
2026-05-04 07:15 72.99149 -147.76447 31005 ft 481 kts
2026-05-04 07:15 73.05770 -147.74780 31005 ft 481 kts
2026-05-04 07:16 73.12420 -147.73096 31005 ft 481 kts
2026-05-04 07:16 73.19070 -147.71397 31005 ft 481 kts
2026-05-04 07:17 73.25713 -147.69688 31005 ft 481 kts
2026-05-04 07:17 73.32378 -147.67961 31005 ft 481 kts
2026-05-04 07:18 73.39043 -147.66219 31005 ft 481 kts
2026-05-04 07:18 73.45678 -147.64471 31005 ft 481 kts
2026-05-04 07:19 73.52342 -147.62701 31005 ft 481 kts
2026-05-04 07:19 73.58977 -147.60925 31005 ft 481 kts
2026-05-04 07:20 73.65626 -147.59132 31005 ft 481 kts
2026-05-04 07:20 73.72268 -147.57327 31005 ft 481 kts
2026-05-04 07:22 73.98878 -147.49945 31005 ft 481 kts
2026-05-04 07:23 74.05534 -147.48062 31005 ft 481 kts
2026-05-04 07:23 74.12161 -147.46172 31005 ft 481 kts
2026-05-04 07:24 74.18816 -147.44257 31005 ft 481 kts
2026-05-04 07:24 74.25479 -147.42325 31005 ft 481 kts
2026-05-04 07:26 74.52070 -147.34450 31005 ft 481 kts
2026-05-04 07:27 74.58712 -147.32440 31005 ft 481 kts
2026-05-04 07:27 74.65369 -147.30411 31005 ft 481 kts
2026-05-04 07:28 74.71992 -147.28374 31005 ft 481 kts
2026-05-04 07:28 74.78643 -147.26312 31005 ft 481 kts
2026-05-04 07:29 74.85196 -147.24262 30997 ft 457 kts
2026-05-04 07:29 74.88309 -147.23283 30928 ft 444 kts
2026-05-04 07:29 74.91305 -147.22357 31115 ft 420 kts
2026-05-04 07:30 74.94108 -147.21515 31466 ft 395 kts
2026-05-04 07:30 74.96792 -147.20744 31473 ft 378 kts
2026-05-04 07:30 74.99350 -147.20099 31267 ft 366 kts
2026-05-04 07:30 75.01805 -147.19536 31040 ft 349 kts
2026-05-04 07:31 75.04150 -147.18710 30978 ft 332 kts
2026-05-04 07:31 75.06446 -147.17709 30390 ft 338 kts
2026-05-04 07:33 75.22945 -147.13121 28325 ft 349 kts
2026-05-04 07:33 75.25158 -147.12346 28390 ft 351 kts
2026-05-04 07:33 75.28715 -147.10774 27738 ft 385 kts
2026-05-04 07:34 75.31432 -147.09628 27376 ft 400 kts
2026-05-04 07:34 75.34206 -147.08623 27565 ft 400 kts
2026-05-04 07:34 75.36935 -147.07684 27773 ft 399 kts 360°
2026-05-04 07:34 75.39693 -147.06792 27922 ft 400 kts 360°
2026-05-04 07:35 75.42513 -147.05748 27701 ft 415 kts
2026-05-04 07:35 75.45429 -147.04765 27616 ft 423 kts
2026-05-04 07:35 75.48357 -147.03865 27703 ft 427 kts
2026-05-04 07:35 75.51310 -147.02937 27792 ft 431 kts
2026-05-04 07:36 75.54286 -147.01964 27882 ft 435 kts
2026-05-04 07:36 75.57330 -147.00940 27972 ft 439 kts
2026-05-04 07:38 75.79370 -146.93231 28179 ft 478 kts
2026-05-04 07:38 75.81705 -146.92397 28180 ft 482 kts
2026-05-04 07:38 75.88429 -146.89970 28320 ft 490 kts
2026-05-04 07:39 75.95219 -146.87497 28481 ft 497 kts 360°
2026-05-04 07:39 76.02135 -146.84961 28636 ft 504 kts 360°
2026-05-04 07:40 76.09114 -146.82378 28780 ft 510 kts 360°
2026-05-04 07:40 76.16252 -146.79698 28877 ft 516 kts 360°